C/2007 D2 ( Spacewatch )

Japanese version
Home page
Total 5,708 html files since Dec. 4, 1995
Updated on April 21, 2007

---------------------------------------------------------------------

* Profile

Discovery Date February 17, 2007
Magnitude 20.1 mag
Discoverer Spacewatch

* Orbital Elements

T 2006 Nov. 24.2995 TT                                  MPC
q   1.245214             (2000.0)            P               Q
z  +0.018476       Peri.   65.1007      -0.6149261      -0.7882925
                   Node   297.1371      -0.7319370      +0.5604107
e   0.976993       Incl.  178.6178      -0.2934862      +0.2540370
From 64 observations 2007 Jan. 29-Mar. 16.

* Magnitudes Graph

        m1 = 16.7 + 5 log d + 10.0 log r

---------------------------------------------------------------------

The orbital elements are published on M.P.E.C. 2007-F65.
The magnitudes graphs are made with Comet for Windows.

---------------------------------------------------------------------

Copyright(C) 1995-2007 Seiichi Yoshida (comet@aerith.net). All rights reserved.